| time (UTC) | temp F | wind direction | speed MPH | gust MPH | rain 1hr in | rain 24hr in | rain mn in | humidity % | barometer mb |
| 20260504150906 | 64 | 216 | 6.0 | 13.0 | 0.00 | 0.18 | 0.01 | 54 | 996.2 |
| 20260504140905 | 56 | 185 | 6.0 | 9.0 | 0.00 | 0.19 | 0.01 | 73 | 997.1 |
| 20260504140405 | 55 | 192 | 5.0 | 10.0 | 0.00 | 0.19 | 0.01 | 75 | 997.2 |
| 20260504130406 | 48 | 158 | 3.0 | 7.0 | 0.00 | 0.22 | 0.01 | 92 | 998.3 |
| 20260504110407 | 40 | 172 | 3.0 | 6.0 | 0.01 | 0.22 | 0.01 | 97 | 999.2 |
| 20260504100406 | 39 | 176 | 3.0 | 5.0 | 0.00 | 0.21 | 0.00 | 97 | 999.8 |
| 20260504081908 | 35 | 119 | 1.0 | 2.0 | 0.00 | 0.21 | 0.00 | 96 | 1001.3 |
| 20260504081407 | 35 | 89 | 1.0 | 2.0 | 0.00 | 0.21 | 0.00 | 96 | 1001.4 |
| 20260504080907 | 35 | 136 | 1.0 | 2.0 | 0.00 | 0.21 | 0.00 | 96 | 1001.4 |
| 20260504080406 | 35 | 113 | 0.0 | 2.0 | 0.00 | 0.21 | 0.00 | 96 | 1001.5 |
| 20260504070406 | 36 | 173 | 1.0 | 2.0 | 0.00 | 0.21 | 0.00 | 96 | 1002.1 |
| 20260504050405 | 38 | 156 | 1.0 | 2.0 | 0.00 | 0.21 | 0.00 | 96 | 1002.7 |
| 20260504045907 | 38 | 167 | 2.0 | 3.0 | 0.00 | 0.21 | 0.00 | 96 | 1002.7 |
| 20260504044907 | 38 | 176 | 1.0 | 3.0 | 0.00 | 0.21 | 0.00 | 96 | 1002.6 |
| 20260504044406 | 38 | 161 | 2.0 | 3.0 | 0.00 | 0.21 | 0.00 | 95 | 1002.7 |
| 20260504043905 | 38 | 164 | 2.0 | 3.0 | 0.00 | 0.21 | 0.00 | 95 | 1002.8 |
| 20260504043408 | 38 | 160 | 2.0 | 2.0 | 0.00 | 0.21 | 0.00 | 95 | 1002.8 |
| 20260504042905 | 38 | 164 | 1.0 | 3.0 | 0.00 | 0.21 | 0.00 | 95 | 1002.9 |
| 20260504042405 | 38 | 166 | 1.0 | 2.0 | 0.00 | 0.21 | 0.00 | 95 | 1002.9 |
| 20260504041907 | 38 | 168 | 1.0 | 2.0 | 0.00 | 0.21 | 0.00 | 95 | 1003.0 |
| 20260504041406 | 38 | 161 | 0.0 | 2.0 | 0.00 | 0.21 | 0.00 | 95 | 1003.1 |
| 20260504040906 | 39 | 145 | 0.0 | 2.0 | 0.00 | 0.21 | 0.00 | 95 | 1003.2 |
| 20260504040406 | 39 | 153 | 1.0 | 3.0 | 0.00 | 0.21 | 0.00 | 95 | 1003.2 |
| 20260504035908 | 39 | 176 | 2.0 | 3.0 | 0.00 | 0.21 | 0.21 | 95 | 1003.3 |
| 20260504034909 | 39 | 164 | 1.0 | 2.0 | 0.00 | 0.21 | 0.21 | 95 | 1003.3 |
| 20260504034406 | 40 | 155 | 2.0 | 2.0 | 0.00 | 0.21 | 0.21 | 95 | 1003.4 |
| 20260504033905 | 40 | 216 | 2.0 | 2.0 | 0.00 | 0.21 | 0.21 | 95 | 1003.4 |
| 20260504032907 | 40 | 224 | 1.0 | 3.0 | 0.00 | 0.21 | 0.21 | 95 | 1003.6 |
| 20260504032407 | 40 | 228 | 1.0 | 2.0 | 0.00 | 0.21 | 0.21 | 95 | 1003.7 |
| 20260504031906 | 41 | 249 | 1.0 | 2.0 | 0.00 | 0.21 | 0.21 | 95 | 1003.8 |
| 20260504031405 | 41 | 329 | 1.0 | 2.0 | 0.00 | 0.21 | 0.21 | 95 | 1003.8 |
| 20260504030906 | 41 | 333 | 1.0 | 2.0 | 0.00 | 0.21 | 0.21 | 96 | 1003.8 |
| 20260504025905 | 41 | 326 | 2.0 | 3.0 | 0.00 | 0.21 | 0.21 | 96 | 1003.9 |
| 20260504025405 | 41 | 263 | 1.0 | 2.0 | 0.00 | 0.21 | 0.21 | 96 | 1003.8 |
| 20260504024907 | 41 | 160 | 0.0 | 2.0 | 0.00 | 0.21 | 0.21 | 95 | 1003.8 |
| 20260504024405 | 41 | 187 | 1.0 | 2.0 | 0.00 | 0.21 | 0.21 | 95 | 1003.9 |
| 20260504023907 | 42 | 157 | 1.0 | 2.0 | 0.00 | 0.21 | 0.21 | 95 | 1003.9 |
| 20260504023407 | 42 | 219 | 1.0 | 2.0 | 0.00 | 0.21 | 0.21 | 95 | 1003.9 |
| 20260504022905 | 42 | 218 | 1.0 | 2.0 | 0.00 | 0.21 | 0.21 | 95 | 1003.8 |
| 20260504022406 | 42 | 176 | 1.0 | 2.0 | 0.00 | 0.21 | 0.21 | 96 | 1003.7 |
| 20260504021906 | 42 | 162 | 1.0 | 2.0 | 0.00 | 0.21 | 0.21 | 96 | 1003.7 |
| 20260504021405 | 43 | 157 | 1.0 | 2.0 | 0.00 | 0.21 | 0.21 | 96 | 1003.8 |
| 20260504020907 | 43 | 213 | 0.0 | 1.0 | 0.00 | 0.21 | 0.21 | 96 | 1003.7 |
| 20260504020405 | 43 | 61 | 1.0 | 2.0 | 0.00 | 0.21 | 0.21 | 96 | 1003.7 |
| 20260504015905 | 43 | 162 | 1.0 | 2.0 | 0.00 | 0.21 | 0.21 | 96 | 1003.7 |
| 20260504015405 | 43 | 27 | 1.0 | 2.0 | 0.00 | 0.21 | 0.21 | 96 | 1003.6 |
| 20260504014907 | 43 | 28 | 1.0 | 2.0 | 0.00 | 0.21 | 0.21 | 96 | 1003.6 |
| 20260504014406 | 43 | 102 | 0.0 | 2.0 | 0.00 | 0.21 | 0.21 | 95 | 1003.5 |
| 20260504013905 | 43 | 86 | 1.0 | 2.0 | 0.00 | 0.21 | 0.21 | 96 | 1003.5 |
| 20260504013405 | 43 | 147 | 1.0 | 3.0 | 0.00 | 0.21 | 0.21 | 96 | 1003.5 |
| 20260504012906 | 43 | 138 | 1.0 | 3.0 | 0.00 | 0.21 | 0.21 | 96 | 1003.4 |
| 20260504012405 | 43 | 85 | 2.0 | 6.0 | 0.00 | 0.21 | 0.21 | 95 | 1003.6 |
| 20260504011906 | 43 | 87 | 2.0 | 6.0 | 0.00 | 0.21 | 0.21 | 95 | 1003.6 |
| 20260504011406 | 43 | 73 | 0.0 | 1.0 | 0.00 | 0.21 | 0.21 | 96 | 1003.6 |
| 20260504010905 | 43 | 79 | 0.0 | 1.0 | 0.00 | 0.21 | 0.21 | 95 | 1003.5 |
| 20260504010405 | 43 | 50 | 0.0 | 1.0 | 0.00 | 0.21 | 0.21 | 95 | 1003.5 |
| 20260504005906 | 43 | 90 | 0.0 | 2.0 | 0.00 | 0.21 | 0.21 | 96 | 1003.4 |
| 20260504004906 | 43 | 100 | 1.0 | 2.0 | 0.00 | 0.21 | 0.21 | 96 | 1003.4 |
| 20260504004405 | 43 | 123 | 1.0 | 2.0 | 0.00 | 0.21 | 0.21 | 96 | 1003.1 |
| 20260504003907 | 43 | 175 | 2.0 | 3.0 | 0.00 | 0.21 | 0.21 | 95 | 1003.1 |
| 20260504003406 | 43 | 154 | 3.0 | 3.0 | 0.01 | 0.21 | 0.21 | 95 | 1003.3 |
| 20260504002906 | 43 | 167 | 2.0 | 3.0 | 0.01 | 0.21 | 0.21 | 95 | 1003.4 |
| 20260504001907 | 42 | 158 | 3.0 | 3.0 | 0.03 | 0.21 | 0.21 | 95 | 1003.4 |
| 20260504000906 | 42 | 161 | 1.0 | 3.0 | 0.07 | 0.21 | 0.21 | 95 | 1003.7 |
| 20260504000405 | 42 | 170 | 2.0 | 3.0 | 0.09 | 0.21 | 0.21 | 95 | 1003.7 |
| 20260503235406 | 41 | 170 | 1.0 | 3.0 | 0.13 | 0.21 | 0.21 | 95 | 1003.9 |
| 20260503234905 | 41 | 155 | 1.0 | 3.0 | 0.13 | 0.21 | 0.21 | 95 | 1003.9 |
| 20260503234407 | 41 | 141 | 2.0 | 3.0 | 0.14 | 0.21 | 0.21 | 94 | 1003.9 |
| 20260503233906 | 40 | 107 | 1.0 | 3.0 | 0.14 | 0.21 | 0.21 | 94 | 1004.0 |
| 20260503233406 | 40 | 149 | 2.0 | 3.0 | 0.13 | 0.20 | 0.20 | 93 | 1004.1 |
| 20260503231906 | 40 | 24 | 2.0 | 3.0 | 0.11 | 0.18 | 0.18 | 92 | 1004.5 |
| 20260503230904 | 41 | 82 | 2.0 | 3.0 | 0.07 | 0.14 | 0.14 | 92 | 1004.7 |
| 20260503230405 | 41 | 19 | 2.0 | 3.0 | 0.05 | 0.12 | 0.12 | 92 | 1005.0 |
| 20260503225905 | 41 | 251 | 0.0 | 3.0 | 0.03 | 0.10 | 0.10 | 92 | 1004.5 |
| 20260503224906 | 41 | 27 | 4.0 | 9.0 | 0.01 | 0.08 | 0.08 | 90 | 1003.9 |
| 20260503224406 | 42 | 34 | 3.0 | 6.0 | 0.00 | 0.07 | 0.07 | 88 | 1003.4 |
| 20260503223905 | 42 | 57 | 3.0 | 6.0 | 0.00 | 0.07 | 0.07 | 87 | 1003.0 |
| 20260503223407 | 42 | 60 | 2.0 | 6.0 | 0.00 | 0.07 | 0.07 | 86 | 1003.0 |
| 20260503222906 | 43 | 121 | 2.0 | 5.0 | 0.00 | 0.07 | 0.07 | 85 | 1002.9 |
| 20260503222405 | 43 | 70 | 3.0 | 6.0 | 0.00 | 0.07 | 0.07 | 84 | 1002.8 |
| 20260503221906 | 44 | 59 | 3.0 | 6.0 | 0.00 | 0.07 | 0.07 | 84 | 1002.8 |
| 20260503221406 | 44 | 43 | 2.0 | 6.0 | 0.00 | 0.07 | 0.07 | 84 | 1002.8 |
| 20260503220906 | 44 | 49 | 2.0 | 7.0 | 0.00 | 0.07 | 0.07 | 85 | 1002.8 |
| 20260503220406 | 44 | 127 | 2.0 | 5.0 | 0.00 | 0.07 | 0.07 | 85 | 1002.9 |
| 20260503215905 | 44 | 45 | 1.0 | 3.0 | 0.00 | 0.07 | 0.07 | 85 | 1002.9 |
| 20260503215406 | 44 | 74 | 2.0 | 3.0 | 0.00 | 0.07 | 0.07 | 84 | 1003.0 |
| 20260503214406 | 44 | 60 | 3.0 | 6.0 | 0.00 | 0.07 | 0.07 | 84 | 1003.1 |
| 20260503213905 | 44 | 89 | 3.0 | 6.0 | 0.00 | 0.07 | 0.07 | 83 | 1003.1 |
| 20260503213406 | 44 | 39 | 3.0 | 5.0 | 0.00 | 0.07 | 0.07 | 84 | 1003.1 |
| 20260503212905 | 44 | 340 | 1.0 | 3.0 | 0.00 | 0.07 | 0.07 | 84 | 1003.1 |
| 20260503211906 | 43 | 88 | 2.0 | 5.0 | 0.00 | 0.07 | 0.07 | 84 | 1003.1 |
| 20260503211406 | 43 | 122 | 3.0 | 9.0 | 0.00 | 0.07 | 0.07 | 84 | 1003.1 |
| 20260503210905 | 43 | 80 | 4.0 | 9.0 | 0.00 | 0.07 | 0.07 | 83 | 1003.4 |
| 20260503210404 | 44 | 9 | 3.0 | 7.0 | 0.00 | 0.07 | 0.07 | 82 | 1003.4 |
| 20260503205906 | 44 | 54 | 5.0 | 7.0 | 0.00 | 0.07 | 0.07 | 82 | 1003.4 |
| 20260503205406 | 45 | 51 | 3.0 | 7.0 | 0.00 | 0.07 | 0.07 | 81 | 1003.5 |
| 20260503204908 | 45 | 67 | 3.0 | 8.0 | 0.00 | 0.07 | 0.07 | 81 | 1003.5 |
| 20260503203407 | 45 | 57 | 4.0 | 6.0 | 0.00 | 0.07 | 0.07 | 81 | 1003.8 |
| 20260503202907 | 45 | 66 | 5.0 | 8.0 | 0.00 | 0.07 | 0.07 | 82 | 1003.9 |
| 20260503202404 | 44 | 68 | 6.0 | 8.0 | 0.00 | 0.07 | 0.07 | 82 | 1003.9 |
| 20260503201909 | 44 | 75 | 6.0 | 12.0 | 0.00 | 0.07 | 0.07 | 81 | 1004.1 |
| 20260503200909 | 45 | 69 | 4.0 | 10.0 | 0.00 | 0.07 | 0.07 | 82 | 1004.2 |
| 20260503200405 | 45 | 60 | 5.0 | 12.0 | 0.00 | 0.07 | 0.07 | 81 | 1004.3 |
| 20260503195906 | 45 | 57 | 6.0 | 8.0 | 0.00 | 0.07 | 0.07 | 80 | 1004.2 |
| 20260503195407 | 45 | 82 | 5.0 | 9.0 | 0.00 | 0.07 | 0.07 | 79 | 1004.3 |
| 20260503194905 | 46 | 54 | 4.0 | 8.0 | 0.00 | 0.07 | 0.07 | 80 | 1004.4 |
| 20260503193905 | 45 | 95 | 5.0 | 9.0 | 0.00 | 0.07 | 0.07 | 80 | 1004.6 |
| 20260503192906 | 46 | 71 | 5.0 | 12.0 | 0.00 | 0.07 | 0.07 | 80 | 1004.8 |
| 20260503191905 | 46 | 62 | 4.0 | 8.0 | 0.00 | 0.07 | 0.07 | 79 | 1004.9 |
| 20260503191405 | 46 | 64 | 4.0 | 8.0 | 0.00 | 0.07 | 0.07 | 79 | 1005.1 |
| 20260503190906 | 47 | 62 | 5.0 | 9.0 | 0.00 | 0.07 | 0.07 | 80 | 1005.1 |
| 20260503190405 | 47 | 77 | 5.0 | 9.0 | 0.00 | 0.07 | 0.07 | 81 | 1005.2 |
| 20260503185906 | 46 | 61 | 5.0 | 7.0 | 0.00 | 0.07 | 0.07 | 82 | 1005.3 |
| 20260503185405 | 46 | 65 | 5.0 | 9.0 | 0.00 | 0.07 | 0.07 | 83 | 1005.3 |
| 20260503184908 | 45 | 67 | 5.0 | 9.0 | 0.00 | 0.07 | 0.07 | 85 | 1005.3 |
| 20260503184405 | 45 | 50 | 5.0 | 8.0 | 0.00 | 0.07 | 0.07 | 83 | 1005.4 |
| 20260503183906 | 45 | 64 | 5.0 | 8.0 | 0.00 | 0.07 | 0.07 | 82 | 1005.4 |
| 20260503183406 | 46 | 63 | 5.0 | 9.0 | 0.00 | 0.07 | 0.07 | 81 | 1005.4 |
| 20260503182904 | 46 | 53 | 4.0 | 7.0 | 0.00 | 0.07 | 0.07 | 83 | 1005.5 |
| 20260503182405 | 46 | 60 | 3.0 | 5.0 | 0.00 | 0.07 | 0.07 | 84 | 1005.6 |
| 20260503181906 | 46 | 54 | 3.0 | 6.0 | 0.00 | 0.07 | 0.07 | 84 | 1005.7 |
| 20260503181405 | 45 | 53 | 3.0 | 7.0 | 0.00 | 0.07 | 0.07 | 85 | 1005.7 |
| 20260503180906 | 45 | 65 | 4.0 | 9.0 | 0.00 | 0.07 | 0.07 | 84 | 1005.8 |
| 20260503175906 | 46 | 73 | 5.0 | 10.0 | 0.01 | 0.07 | 0.07 | 82 | 1005.8 |
| 20260503175405 | 47 | 65 | 5.0 | 9.0 | 0.01 | 0.07 | 0.07 | 85 | 1005.8 |
| 20260503174908 | 47 | 34 | 5.0 | 7.0 | 0.01 | 0.07 | 0.07 | 88 | 1005.8 |
| 20260503173906 | 47 | 62 | 3.0 | 9.0 | 0.01 | 0.07 | 0.07 | 89 | 1006.0 |
| 20260503173408 | 47 | 129 | 3.0 | 6.0 | 0.01 | 0.07 | 0.07 | 93 | 1006.2 |
| 20260503172904 | 46 | 59 | 2.0 | 6.0 | 0.01 | 0.07 | 0.07 | 95 | 1006.2 |
| 20260503172405 | 45 | 157 | 3.0 | 5.0 | 0.01 | 0.07 | 0.07 | 95 | 1006.2 |
| 20260503171905 | 44 | 159 | 2.0 | 5.0 | 0.01 | 0.07 | 0.07 | 95 | 1006.3 |
| 20260503170905 | 42 | 101 | 3.0 | 6.0 | 0.01 | 0.07 | 0.07 | 94 | 1006.4 |